Location: Klickitat County Star Party
(45.8642°N, 120.6771°W)
Time: 16:46:03
(UTC-07:00)

SO-50 - Pass Details

Date: 27 May 2019
Orbit: 586 x 700 km, 64.6° (Epoch: 17 June)

Event Time Altitude Azimuth Distance (km) Brightness Sun altitude
Rises 04:22:50 0° 303° (WNW) 3,067 ? -8.6°
Reaches altitude 10° 04:27:39 10° 261° (W) 2,116 ? -8.0°
Maximum altitude 04:28:12 10° 255° (WSW) 2,099 ? -7.9°
Drops below altitude 10° 04:28:44 10° 248° (WSW) 2,107 ? -7.9°
Enters shadow 04:29:32 - 239° (WSW) 2,160 ? -7.8°
